YAMAL 300K

Last updated on Sat Sep 12 2026 00:03:01 GMT+0000 (Coordinated Universal Time)

1 38978U 12061B 26254.65205087 .00000055 00000+0 00000+0 0 9995 2 38978 0.0103 194.1493 0000461 160.0811 54.1286 1.00274045 50497
UTC large
Height (km)
Speed (km/s)
/
Latitude / Longitude
Inclination (degrees)
Orbital Period (minutes)
Azimuth
Elevation
Range (km)
Doppler Factor

Next 0 passes for location: London (51.5072 / 0.1276)

No passes found over London.
YAMAL 300K